Weather History for Florala, AL

Change the Weather History Date:

Thursday, January 10, 2013

  Actual Average (KCEW) Record (KCEW)
Temperature  
Mean Temperature 71 °F -  
Max Temperature 78 °F 56 °F 84 °F (1949)
Min Temperature 64 °F 34 °F 19 °F (2001)
Cooling Degree Days 6    
Growing Degree Days 21 (Base 50)    
Moisture  
Dew Point 64 °F    
Average Humidity 83    
Maximum Humidity 100    
Minimum Humidity 60    
Precipitation  
Precipitation 0.00 in - - ()
Sea Level Pressure  
Sea Level Pressure 30.26 in    
Wind  
Wind Speed 7 mph (SE)    
Max Wind Speed 15 mph    
Max Gust Speed 25 mph    
Visibility 7 miles    
Events Fog , Rain    
Averages and records for this station are not official NWS values.
T = Trace of Precipitation, MM = Missing Value Source: NWS Daily Summary

Daily Weather History Graph

Daily Weather History Graph

Search for Another Location

Airport:

Trip Planner

Search our weather history database for the weather conditions in past years. The results will help you decide how hot, cold, wet, or windy it might be!

Date:

Astronomy

Jan. 10, 2013 Rise Set
Actual Time 6:44 AM CST 5:01 PM CST
Civil Twilight 6:18 AM CST 5:27 PM CST
Nautical Twilight 5:48 AM CST 5:57 PM CST
Astronomical Twilight 5:19 AM CST 6:27 PM CST
Moon 5:24 AM CST (1/10) 4:07 PM CST (1/10)
Length of Visible Light 11h 09m
Length of Day
10h 17m
Waning Crescent, 2% of the Moon is Illuminated
Jan 10
Waning Crescent
Jan 11
New
Jan 18
First Quarter
Jan 26
Full
Feb 3
Last Quarter

Hourly Weather History & Observations

Time (CST) Temp. Dew Point Humidity Pressure Visibility Wind Dir Wind Speed Gust Speed Precip Events Conditions
12:13 AM 64.4 °F 62.6 °F 94% 30.31 in 6.0 mi ENE 4.6 mph - 0.00 in Rain Light Rain
12:58 AM 64.0 °F 62.1 °F 93% 30.31 in 6.0 mi East 4.6 mph - 0.00 in   Overcast
1:34 AM 64.4 °F 62.6 °F 94% 30.31 in 5.0 mi East 4.6 mph - N/A   Overcast
1:58 AM 64.9 °F 63.0 °F 93% 30.30 in 2.5 mi ESE 3.5 mph - N/A   Overcast
2:07 AM 64.4 °F 64.4 °F 100% 30.31 in 1.5 mi East 4.6 mph - N/A   Overcast
2:22 AM 64.4 °F 64.4 °F 100% 30.31 in 0.8 mi East 3.5 mph - N/A   Overcast
2:58 AM 64.9 °F 64.0 °F 97% 30.29 in 0.5 mi East 5.8 mph - N/A Fog Fog
3:58 AM 66.0 °F 64.9 °F 96% 30.27 in 0.5 mi East 5.8 mph - N/A Fog Fog
4:58 AM 64.9 °F 64.9 °F 100% 30.27 in 0.8 mi East 6.9 mph - 0.00 in   Mist
5:09 AM 64.4 °F 64.4 °F 100% 30.27 in 1.0 mi East 8.1 mph - N/A   Mist
5:58 AM 66.0 °F 64.9 °F 96% 30.25 in 1.2 mi Variable 5.8 mph - N/A   Overcast
6:49 AM 66.2 °F 64.4 °F 94% 30.26 in 2.0 mi ESE 6.9 mph - N/A   Overcast
6:58 AM 66.9 °F 66.0 °F 97% 30.26 in 2.0 mi ESE 8.1 mph - N/A   Overcast
7:36 AM 66.2 °F 66.2 °F 100% 30.27 in 3.0 mi ESE 5.8 mph - N/A   Overcast
7:58 AM 68.0 °F 66.0 °F 93% 30.26 in 4.0 mi Variable 5.8 mph - N/A   Overcast
8:43 AM 68.0 °F 66.2 °F 94% 30.29 in 5.0 mi SE 4.6 mph - N/A   Overcast
8:58 AM 68.0 °F 66.9 °F 96% 30.29 in 3.0 mi SE 4.6 mph - N/A   Overcast
9:34 AM 69.8 °F 66.2 °F 88% 30.30 in 7.0 mi SE 4.6 mph - 0.00 in   Overcast
9:48 AM 69.8 °F 66.2 °F 88% 30.30 in 8.0 mi SE 6.9 mph - 0.00 in   Overcast
9:58 AM 71.1 °F 66.9 °F 87% 30.29 in 10.0 mi SE 6.9 mph - 0.00 in   Overcast
10:12 AM 71.6 °F 66.2 °F 83% 30.30 in 10.0 mi SE 8.1 mph - N/A   Overcast
10:23 AM 73.4 °F 66.2 °F 78% 30.30 in 10.0 mi SSE 8.1 mph - N/A   Overcast
10:58 AM 73.9 °F 64.9 °F 73% 30.28 in 10.0 mi SSE 10.4 mph - N/A   Mostly Cloudy
11:18 AM 75.2 °F 64.4 °F 69% 30.27 in 10.0 mi SSE 10.4 mph - N/A   Mostly Cloudy
11:58 AM 77.0 °F 64.0 °F 64% 30.24 in 10.0 mi SSE 13.8 mph 21.9 mph N/A   Mostly Cloudy
12:10 PM 77.0 °F 64.4 °F 65% 30.25 in 10.0 mi SE 11.5 mph - N/A   Mostly Cloudy
12:14 PM 77.0 °F 64.4 °F 65% 30.24 in 10.0 mi SSE 8.1 mph - N/A   Mostly Cloudy
12:21 PM 77.0 °F 64.4 °F 65% 30.24 in 10.0 mi South 11.5 mph - N/A   Mostly Cloudy
12:58 PM 75.9 °F 64.0 °F 67% 30.22 in 10.0 mi South 9.2 mph - 0.00 in Rain Light Rain
1:58 PM 78.1 °F 64.9 °F 64% 30.20 in 10.0 mi South 15.0 mph 20.7 mph 0.00 in   Mostly Cloudy
2:58 PM 77.0 °F 62.1 °F 60% 30.20 in 10.0 mi SSE 10.4 mph 21.9 mph N/A   Scattered Clouds
3:58 PM 75.0 °F 62.1 °F 64% 30.21 in 10.0 mi South 8.1 mph - N/A   Clear
4:58 PM 73.0 °F 62.1 °F 68% 30.22 in 10.0 mi South 10.4 mph - N/A   Mostly Cloudy
5:58 PM 71.1 °F 61.0 °F 70% 30.21 in 10.0 mi SSE 9.2 mph - N/A   Clear
6:58 PM 70.0 °F 62.1 °F 76% 30.19 in 10.0 mi SE 6.9 mph - N/A   Scattered Clouds
7:58 PM 70.0 °F 62.1 °F 76% 30.22 in 10.0 mi SSE 8.1 mph - N/A   Overcast
8:58 PM 69.1 °F 63.0 °F 81% 30.20 in 10.0 mi SSE 15.0 mph 21.9 mph 0.00 in   Overcast
9:58 PM 69.1 °F 63.0 °F 81% 30.18 in 10.0 mi South 13.8 mph 23.0 mph N/A   Overcast
10:58 PM 68.0 °F 61.0 °F 78% 30.19 in 10.0 mi South 15.0 mph 25.3 mph N/A   Overcast
11:58 PM 69.1 °F 61.0 °F 75% 30.16 in 10.0 mi SSE 9.2 mph - N/A   Overcast